Flag for US Virgin Islands Weather past 2 weeks in Cruz Bay, US Virgin Islands

Now
77 °F

Passing clouds.


Feels Like: 78 °F
Forecast: 78 / 83 °F
Wind: 5 mph from East

Location: Cyril E. King International Airport


UV Index: 10 (Very high)

Visibility: 10 mi


Pressure: 29.95 "Hg

Humidity: 94%

Dew point: 75 °F

Location of Cruz BayLocation

Historic Weather in Cruz Bay

°F

Cruz Bay temperature yesterday

Maximum temperature yesterday: 85 °F (at 1:53 PM)
Minimum temperature yesterday: 76 °F (at 4:53 AM)
Average temperature yesterday: 80 °F

Past Weeks' High & Low Weather Summary

 TemperatureHumidityPressure
High85 °F (Apr 11, 1:53 PM)100% (Apr 11, 9:13 AM)30.14 "Hg (Apr 11, 9:13 AM)
Low73 °F (Apr 12, 2:53 AM)45% (Apr 22, 2:08 AM)29.89 "Hg (Apr 22, 4:53 PM)
Average79 °F79%30.00 "Hg
* Reported Apr 10 3:53 AM — Apr 25 3:53 AM, Cruz Bay, Weather by CustomWeather, © 2014

Note: Actual official high and low records may vary slightly from our data, if they occured in-between our weather recording intervals... More about our weather records

Advertising

Historic Weather Conditions — Data for Previous 24 hours

 ConditionsComfort  
Time TempWeatherWind HumidityBarometerVisibility
3:53 AM
Apr 25
77 °FPassing clouds.5 mph94%29.95 "Hg10 mi
3:32 AM77 °FPassing clouds.5 mph94%29.95 "Hg10 mi
3:18 AM77 °FPassing clouds.5 mph94%29.95 "Hg10 mi
2:53 AM77 °FPassing clouds.5 mph94%29.95 "Hg10 mi
1:53 AM77 °FClear.5 mph90%29.97 "Hg10 mi
12:53 AM78 °FPassing clouds.5 mph90%30.00 "Hg10 mi
11:53 PM
Apr 24
78 °FClear.6 mph90%30.02 "Hg10 mi
10:53 PM79 °FClear.3 mph88%30.03 "Hg10 mi
9:53 PM79 °FPassing clouds.3 mph90%30.03 "Hg10 mi
7:53 PM80 °FPassing clouds.6 mph85%30.00 "Hg10 mi
6:53 PM82 °FClear.8 mph82%29.99 "Hg10 mi
5:53 PM83 °FSunny.7 mph79%29.97 "Hg10 mi
4:53 PM83 °FSunny.9 mph79%29.97 "Hg10 mi
2:53 PM85 °FPassing clouds.8 mph75%29.97 "Hg10 mi
1:53 PM85 °FSunny.10 mph75%29.98 "Hg10 mi
10:53 AM83 °FPassing clouds.10 mph79%30.03 "Hg10 mi
9:53 AM83 °FPassing clouds.10 mph77%30.03 "Hg10 mi
9:41 AM82 °FPartly sunny.12 mph79%30.03 "Hg10 mi
8:53 AM82 °FPassing clouds.7 mph79%30.02 "Hg10 mi
7:53 AM81 °FSunny.8 mph82%30.02 "Hg10 mi
6:53 AM78 °FSunny.No wind90%30.00 "Hg10 mi
5:53 AM77 °FClear.3 mph90%29.98 "Hg10 mi
4:53 AM76 °FClear.3 mph91%29.97 "Hg10 mi
Weather by CustomWeather, © 2014

See weather overview